Tiempo cada hora Abdaevo

Hoy, 23 Octubre, Viernes

Tiempo Temperatura Precipitaciones Viento Presión Humedad
00:00 -2°C° 0 mm 1 mps 747 mmHg 84%
01:00 -1°C° 0 mm 1 mps 747 mmHg 84%
02:00 -1°C° 0 mm 1 mps 746 mmHg 84%
03:00 -3°C° 0 mm 2 mps 747 mmHg 79%
04:00 -4°C° 0 mm 3 mps 746 mmHg 78%
05:00 -4°C° 0 mm 3 mps 746 mmHg 77%
06:00 -3°C° 0 mm 4 mps 745 mmHg 76%
07:00 -3°C° 0 mm 4 mps 744 mmHg 78%
08:00 -2°C° 0 mm 5 mps 744 mmHg 80%
09:00 -1°C° 0 mm 5 mps 744 mmHg 85%
10:00 -2°C° 0.2 mm 6 mps 743 mmHg 88%
11:00 -2°C° 0.2 mm 6 mps 742 mmHg 91%
12:00 -2°C° 0.2 mm 6 mps 742 mmHg 95%
13:00 -2°C° 0.4 mm 6 mps 741 mmHg 94%
14:00 -1°C° 0.4 mm 6 mps 740 mmHg 94%
15:00 +1°C° 0.4 mm 6 mps 740 mmHg 94%
16:00 +1°C° 0.7 mm 6 mps 739 mmHg 95%
17:00 +1°C° 0.7 mm 5 mps 738 mmHg 95%
18:00 +1°C° 0.7 mm 5 mps 738 mmHg 96%
19:00 +1°C° 0.4 mm 4 mps 737 mmHg 96%
20:00 +1°C° 0.4 mm 4 mps 737 mmHg 97%
21:00 +3°C° 0.4 mm 3 mps 737 mmHg 98%
22:00 +3°C° 0.1 mm 3 mps 736 mmHg 98%
23:00 +3°C° 0.1 mm 3 mps 736 mmHg 98%

Mañana, 24 Octubre, Sábado

Tiempo Temperatura Precipitaciones Viento Presión Humedad
00:00 +4°C° 0.1 mm 2 mps 735 mmHg 98%
01:00 +4°C° 1.8 mm 3 mps 735 mmHg 98%
02:00 +4°C° 1.8 mm 3 mps 734 mmHg 98%
03:00 +5°C° 1.8 mm 3 mps 734 mmHg 98%
04:00 +5°C° 0.8 mm 3 mps 734 mmHg 98%
05:00 +5°C° 0.8 mm 3 mps 733 mmHg 98%
06:00 +7°C° 0.8 mm 3 mps 733 mmHg 97%
07:00 +7°C° 0.4 mm 3 mps 733 mmHg 96%
08:00 +6°C° 0.4 mm 4 mps 733 mmHg 95%
09:00 +7°C° 0.4 mm 4 mps 733 mmHg 94%
10:00 +7°C° 0.1 mm 5 mps 734 mmHg 90%
11:00 +8°C° 0.1 mm 5 mps 734 mmHg 87%
12:00 +8°C° 0.1 mm 5 mps 735 mmHg 83%
13:00 +8°C° 0.1 mm 5 mps 735 mmHg 82%
14:00 +8°C° 0.1 mm 4 mps 736 mmHg 82%
15:00 +8°C° 0.1 mm 4 mps 736 mmHg 82%
16:00 +7°C° 0.1 mm 4 mps 737 mmHg 84%
17:00 +7°C° 0.1 mm 4 mps 737 mmHg 86%
18:00 +6°C° 0.1 mm 4 mps 737 mmHg 89%
19:00 +5°C° 0 mm 3 mps 738 mmHg 88%
20:00 +4°C° 0 mm 3 mps 738 mmHg 87%
21:00 +4°C° 0 mm 3 mps 739 mmHg 87%
22:00 +3°C° 0 mm 3 mps 739 mmHg 88%
23:00 +3°C° 0 mm 2 mps 739 mmHg 90%

Pasado mañana, 25 Octubre, Domingo

Tiempo Temperatura Precipitaciones Viento Presión Humedad
00:00 +3°C° 0 mm 2 mps 739 mmHg 91%
01:00 +2°C° 0 mm 2 mps 740 mmHg 92%
02:00 +2°C° 0 mm 2 mps 740 mmHg 94%
03:00 +1°C° 0 mm 2 mps 740 mmHg 95%
04:00 +1°C° 0 mm 2 mps 740 mmHg 95%
05:00 +1°C° 0 mm 1 mps 740 mmHg 95%
06:00 +1°C° 0 mm 1 mps 740 mmHg 95%
07:00 +2°C° 0 mm 1 mps 740 mmHg 91%
08:00 +2°C° 0 mm 0 mps 740 mmHg 86%
09:00 +2°C° 0 mm 0 mps 740 mmHg 82%
10:00 +3°C° 0 mm 0 mps 740 mmHg 79%
11:00 +4°C° 0 mm 1 mps 740 mmHg 77%
12:00 +5°C° 0 mm 1 mps 740 mmHg 74%
13:00 +5°C° 0 mm 1 mps 740 mmHg 76%
14:00 +5°C° 0 mm 1 mps 740 mmHg 78%
15:00 +4°C° 0 mm 0 mps 740 mmHg 80%
16:00 +4°C° 0 mm 1 mps 740 mmHg 83%
17:00 +3°C° 0 mm 1 mps 740 mmHg 87%
18:00 +2°C° 0 mm 1 mps 740 mmHg 91%
19:00 +2°C° 0 mm 1 mps 740 mmHg 92%
20:00 +2°C° 0 mm 1 mps 740 mmHg 93%
21:00 -1°C° 0 mm 2 mps 740 mmHg 94%
22:00 +1°C° 0 mm 2 mps 741 mmHg 94%
23:00 +1°C° 0 mm 2 mps 741 mmHg 94%

, 26 Octubre, Lunes

Tiempo Temperatura Precipitaciones Viento Presión Humedad
00:00 0°C° 0 mm 3 mps 741 mmHg 94%
01:00 -1°C° 0 mm 3 mps 741 mmHg 94%
02:00 -1°C° 0 mm 3 mps 742 mmHg 94%
03:00 -2°C° 0 mm 3 mps 742 mmHg 93%
04:00 -2°C° 0 mm 3 mps 742 mmHg 93%
05:00 -3°C° 0 mm 4 mps 742 mmHg 92%
06:00 -3°C° 0 mm 4 mps 743 mmHg 91%
07:00 -3°C° 0 mm 4 mps 743 mmHg 89%
08:00 -2°C° 0 mm 5 mps 744 mmHg 87%
09:00 -3°C° 0 mm 6 mps 744 mmHg 84%
10:00 -1°C° 0 mm 5 mps 745 mmHg 80%
11:00 -1°C° 0 mm 5 mps 746 mmHg 75%
12:00 0°C° 0 mm 5 mps 747 mmHg 70%
13:00 -1°C° 0 mm 5 mps 747 mmHg 71%
14:00 -1°C° 0 mm 5 mps 748 mmHg 71%
15:00 -1°C° 0 mm 5 mps 749 mmHg 72%
16:00 -2°C° 0 mm 4 mps 749 mmHg 74%
17:00 -2°C° 0 mm 4 mps 750 mmHg 76%
18:00 -2°C° 0 mm 3 mps 751 mmHg 78%
19:00 -2°C° 0 mm 3 mps 751 mmHg 78%
20:00 -2°C° 0 mm 3 mps 752 mmHg 78%
21:00 -2°C° 0 mm 3 mps 752 mmHg 78%
22:00 -4°C° 0 mm 3 mps 752 mmHg 82%
23:00 -4°C° 0 mm 3 mps 753 mmHg 85%

26 Octubre, Lunes

Tiempo Temperatura Precipitaciones Viento Presión Humedad
00:00 0°C° 0 mm 3 mps 741 mmHg 94%
01:00 -1°C° 0 mm 3 mps 741 mmHg 94%
02:00 -1°C° 0 mm 3 mps 742 mmHg 94%
03:00 -2°C° 0 mm 3 mps 742 mmHg 93%
04:00 -2°C° 0 mm 3 mps 742 mmHg 93%
05:00 -3°C° 0 mm 4 mps 742 mmHg 92%
06:00 -3°C° 0 mm 4 mps 743 mmHg 91%
07:00 -3°C° 0 mm 4 mps 743 mmHg 89%
08:00 -2°C° 0 mm 5 mps 744 mmHg 87%
09:00 -3°C° 0 mm 6 mps 744 mmHg 84%
10:00 -1°C° 0 mm 5 mps 745 mmHg 80%
11:00 -1°C° 0 mm 5 mps 746 mmHg 75%
12:00 0°C° 0 mm 5 mps 747 mmHg 70%
13:00 -1°C° 0 mm 5 mps 747 mmHg 71%
14:00 -1°C° 0 mm 5 mps 748 mmHg 71%
15:00 -1°C° 0 mm 5 mps 749 mmHg 72%
16:00 -2°C° 0 mm 4 mps 749 mmHg 74%
17:00 -2°C° 0 mm 4 mps 750 mmHg 76%
18:00 -2°C° 0 mm 3 mps 751 mmHg 78%
19:00 -2°C° 0 mm 3 mps 751 mmHg 78%
20:00 -2°C° 0 mm 3 mps 752 mmHg 78%
21:00 -2°C° 0 mm 3 mps 752 mmHg 78%
22:00 -4°C° 0 mm 3 mps 752 mmHg 82%
23:00 -4°C° 0 mm 3 mps 753 mmHg 85%

27 Octubre, Martes

Tiempo Temperatura Precipitaciones Viento Presión Humedad
00:00 -4°C° 0 mm 2 mps 753 mmHg 88%
01:00 -4°C° 0 mm 2 mps 753 mmHg 88%
02:00 -4°C° 0 mm 2 mps 754 mmHg 89%
03:00 -4°C° 0 mm 2 mps 754 mmHg 89%
04:00 -4°C° 0 mm 2 mps 754 mmHg 89%
05:00 -4°C° 0 mm 2 mps 755 mmHg 89%
06:00 -4°C° 0 mm 2 mps 755 mmHg 89%
07:00 -4°C° 0 mm 2 mps 755 mmHg 85%
08:00 -3°C° 0 mm 2 mps 756 mmHg 80%
09:00 -2°C° 0 mm 2 mps 756 mmHg 76%
10:00 +1°C° 0 mm 1 mps 756 mmHg 70%
11:00 +2°C° 0 mm 1 mps 756 mmHg 64%
12:00 +3°C° 0 mm 1 mps 757 mmHg 58%
13:00 +3°C° 0 mm 1 mps 757 mmHg 60%
14:00 +3°C° 0 mm 1 mps 757 mmHg 62%
15:00 +3°C° 0 mm 1 mps 757 mmHg 63%
16:00 +2°C° 0 mm 1 mps 757 mmHg 67%
17:00 +1°C° 0 mm 1 mps 757 mmHg 71%
18:00 0°C° 0 mm 1 mps 757 mmHg 74%
19:00 0°C° 0 mm 1 mps 757 mmHg 75%
20:00 0°C° 0 mm 1 mps 757 mmHg 75%
21:00 0°C° 0 mm 1 mps 757 mmHg 75%
22:00 0°C° 0 mm 1 mps 757 mmHg 76%
23:00 0°C° 0 mm 1 mps 757 mmHg 76%

28 Octubre, Miércoles

Tiempo Temperatura Precipitaciones Viento Presión Humedad
00:00 -1°C° 0 mm 1 mps 757 mmHg 77%
01:00 -3°C° 0 mm 2 mps 757 mmHg 76%
02:00 -3°C° 0 mm 2 mps 757 mmHg 76%
03:00 -3°C° 0 mm 2 mps 756 mmHg 76%
04:00 -3°C° 0 mm 2 mps 756 mmHg 76%
05:00 -3°C° 0 mm 2 mps 756 mmHg 75%
06:00 -3°C° 0 mm 2 mps 756 mmHg 75%
07:00 -2°C° 0 mm 2 mps 756 mmHg 72%
08:00 -1°C° 0 mm 3 mps 756 mmHg 68%
09:00 0°C° 0 mm 3 mps 756 mmHg 65%
10:00 +1°C° 0 mm 3 mps 756 mmHg 63%
11:00 +2°C° 0 mm 3 mps 756 mmHg 62%
12:00 +3°C° 0 mm 3 mps 756 mmHg 60%
13:00 +2°C° 0 mm 3 mps 756 mmHg 63%
14:00 +2°C° 0 mm 3 mps 756 mmHg 66%
15:00 +2°C° 0 mm 3 mps 756 mmHg 68%
16:00 +1°C° 0 mm 3 mps 756 mmHg 72%
17:00 0°C° 0 mm 3 mps 756 mmHg 76%
18:00 -1°C° 0 mm 3 mps 756 mmHg 80%
19:00 -1°C° 0 mm 3 mps 756 mmHg 79%
20:00 -1°C° 0 mm 3 mps 756 mmHg 78%
21:00 -2°C° 0 mm 3 mps 756 mmHg 77%
22:00 -2°C° 0 mm 3 mps 756 mmHg 76%
23:00 -2°C° 0 mm 3 mps 756 mmHg 75%
Mostrar más

Necesitamos Su Consentimiento

Meteoprog y nuestros Proveedores de Servicios pueden almacenar y acceder a sus datos personales como cookies, identificadores de dispositivo u otras tecnologías similares de su dispositivo y procesar dichos datos para personalizar contenido y anuncios, además de ofrecer funciones de redes sociales y analizar el tráfico.

  • Almacenar y/o acceder a información en su dispositivo

    Se puede almacenar o acceder a cookies, identificadores de dispositivo u otra información de su dispositivo para los fines anteriormente indicados.

  • Anuncios y contenido personalizados, medición de anuncios y contenido, percepciones del público, y desarrollo de productos

    Los anuncios y el contenido pueden personalizarse en base a su perfil. Se pueden añadir más datos para personalizar mejor los anuncios y contenidos. Se puede medir el rendimiento de los anuncios y contenidos. Se puede obtener la percepción sobre el público que ha visto los anuncios y contenidos. Dichos datos pueden usarse para desarrollar o mejorar la experiencia del usuario, sistemas y software.

Al hacer clic en ‘Estoy De Acuerdo’ usted permitirá el uso de las cookies, identificadores de dispositivo, balizas web u otras tecnologías similares indicadas. Su configuración puede cambiarse desde el navegador de su dispositivo.

Para ciertos fines, los intereses legítimos pueden ser considerados por encima del consentimiento. Puede leer más sobre ello en nuestra Política de Privacidad y Cookies.